Location: *
(46.1200°N, 11.2700°E)
Time: 01:34:41
(UTC+00:00)

Okean 1-7 - Pass Details

Date: 02 March 2021
Orbit: 589 x 619 km, 82.5° (Epoch: 20 April)

Event Time Altitude Azimuth Distance (km) Brightness Sun altitude
Rises 19:22:11 0° 344° (NNW) 2,898 6.9 -24.7°
Reaches altitude 10° 19:24:31 10° 337° (NNW) 1,984 6.1 -25.1°
Maximum altitude 19:28:37 41° 268° (W) 895 4.2 -25.8°
Enters shadow 19:31:18 19° 207° (SSW) 1,454 5.0 -26.2°
